2023/08/29 00:00:00, 0.1,22.9
2023/08/29 00:10:00, 0.2,23.0
2023/08/29 00:20:00, 2.4,22.7
2023/08/29 00:30:00, 6.0,22.6
2023/08/29 00:40:00, 5.9,22.4
2023/08/29 00:50:00, 5.3,22.4
2023/08/29 01:00:00, 4.8,22.5
2023/08/29 01:10:00, 4.4,22.3
2023/08/29 01:20:00, 4.3,22.3
2023/08/29 01:30:00, 4.1,22.3
2023/08/29 01:40:00, 4.0,22.2
2023/08/29 01:50:00, 4.0,22.2
2023/08/29 02:00:00, 4.1,22.3
2023/08/29 02:10:00, 4.4,22.3
2023/08/29 02:20:00, 4.9,22.1
2023/08/29 02:30:00, 5.5,22.1
2023/08/29 02:40:00, 6.1,22.0
2023/08/29 02:50:00, 3.3,21.9
2023/08/29 03:00:00, 0.3,21.8
2023/08/29 03:10:00, 0.2,21.8
2023/08/29 03:20:00, 0.2,21.5
2023/08/29 03:30:00, 0.2,21.3
2023/08/29 03:40:00, 0.1,21.4
2023/08/29 03:50:00, 0.1,21.3
2023/08/29 04:00:00, 0.1,21.3
2023/08/29 04:10:00, 1.9,21.2
2023/08/29 04:20:00, 7.0,21.3
2023/08/29 04:30:00, 7.6,21.2
2023/08/29 04:40:00, 7.3,21.0
2023/08/29 04:50:00, 7.1,21.0
2023/08/29 05:00:00, 6.9,20.9
2023/08/29 05:10:00, 6.5,21.1
2023/08/29 05:20:00, 6.3,20.8
2023/08/29 05:30:00, 6.0,20.7
2023/08/29 05:40:00, 5.7,20.9
2023/08/29 05:50:00, 5.5,21.0
2023/08/29 06:00:00, 5.3,20.6
2023/08/29 06:10:00, 5.2,21.0
2023/08/29 06:20:00, 5.1,21.2
2023/08/29 06:30:00, 5.0,22.2
2023/08/29 06:40:00, 4.9,23.0
2023/08/29 06:50:00, 4.9,23.6
2023/08/29 07:00:00, 4.8,24.4
2023/08/29 07:10:00, 4.4,25.1
2023/08/29 07:20:00, 4.3,26.0
2023/08/29 07:30:00, 4.2,26.1
2023/08/29 07:40:00, 4.3,27.0
2023/08/29 07:50:00, 4.4,29.3
2023/08/29 08:00:00, 4.6,31.3
2023/08/29 08:10:00, 4.6,32.0
2023/08/29 08:20:00, 4.4,31.8
2023/08/29 08:30:00, 4.2,32.5
2023/08/29 08:40:00, 4.0,32.1
2023/08/29 08:50:00, 3.8,32.0
2023/08/29 09:00:00, 3.8,31.4
2023/08/29 09:10:00, 4.4,32.9
2023/08/29 09:20:00, 5.1,33.4
2023/08/29 09:30:00, 5.6,32.8
2023/08/29 09:40:00, 5.6,32.2
2023/08/29 09:50:00, 5.1,32.9
2023/08/29 10:00:00, 4.8,33.2
2023/08/29 10:10:00, 5.3,33.2
2023/08/29 10:20:00, 5.5,34.2
2023/08/29 10:30:00, 5.7,34.3
2023/08/29 10:40:00, 6.1,33.2
2023/08/29 10:50:00, 6.8,34.0
2023/08/29 11:00:00, 6.6,33.9
2023/08/29 11:10:00, 6.4,34.2
2023/08/29 11:20:00, 6.2,34.6
2023/08/29 11:30:00, 6.7,35.2
2023/08/29 11:40:00, 6.7,35.2
2023/08/29 11:50:00, 6.3,34.7
2023/08/29 12:00:00, 5.7,34.8
2023/08/29 12:10:00, 5.4,33.7
2023/08/29 12:20:00, 5.2,34.3
2023/08/29 12:30:00, 4.6,34.3
2023/08/29 12:40:00, 4.9,34.6
2023/08/29 12:50:00, 2.6,34.7
2023/08/29 13:00:00, 3.2,33.3
2023/08/29 13:10:00, 4.4,34.4
2023/08/29 13:20:00, 4.2,34.1
2023/08/29 13:30:00, 4.2,34.3
2023/08/29 13:40:00, 4.4,33.8
2023/08/29 13:50:00, 4.5,33.7
2023/08/29 14:00:00, 4.3,32.5
2023/08/29 14:10:00, 4.6,34.0
2023/08/29 14:20:00, 4.7,31.9
2023/08/29 14:30:00, 4.6,33.6
2023/08/29 14:40:00, 4.7,34.2
2023/08/29 14:50:00, 4.8,34.2
2023/08/29 15:00:00, 3.8,33.8
2023/08/29 15:10:00, 0.4,34.4
2023/08/29 15:20:00, 0.4,34.8
2023/08/29 15:30:00, 0.4,34.2
2023/08/29 15:40:00, 0.5,33.6
2023/08/29 15:50:00, 2.5,33.6
2023/08/29 16:00:00, 1.8,33.6
2023/08/29 16:10:00, 0.4,33.7
2023/08/29 16:20:00, 0.4,34.9
2023/08/29 16:30:00, 0.4,37.9
2023/08/29 16:40:00, 0.6,36.5
2023/08/29 16:50:00, 2.8,35.5
2023/08/29 17:00:00, 4.0,34.8
2023/08/29 17:10:00, 4.1,31.0
2023/08/29 17:20:00, 4.3,30.9
2023/08/29 17:30:00, 2.5,30.6
2023/08/29 17:40:00, 0.4,31.6
2023/08/29 17:50:00, 0.4,30.5
2023/08/29 18:00:00, 0.2,29.3
2023/08/29 18:10:00, 0.1,28.8
2023/08/29 18:20:00, 0.2,28.4
2023/08/29 18:30:00, 0.2,27.8
2023/08/29 18:40:00, 0.2,27.6
2023/08/29 18:50:00, 0.2,27.9
2023/08/29 19:00:00, 0.2,28.0
2023/08/29 19:10:00, 0.2,27.5
2023/08/29 19:20:00, 0.2,27.0
2023/08/29 19:30:00, 0.2,27.5
2023/08/29 19:40:00, 0.2,27.3
2023/08/29 19:50:00, 0.2,27.3
2023/08/29 20:00:00, 0.2,26.9
2023/08/29 20:10:00, 0.2,26.2
2023/08/29 20:20:00, 0.2,26.1
2023/08/29 20:30:00, 0.2,25.3
2023/08/29 20:40:00, 0.2,25.9
2023/08/29 20:50:00, 0.2,25.2
2023/08/29 21:00:00, 0.2,24.7
2023/08/29 21:10:00, 0.2,24.8
2023/08/29 21:20:00, 0.2,25.4
2023/08/29 21:30:00, 0.2,25.7
2023/08/29 21:40:00, 0.2,25.6
2023/08/29 21:50:00, 0.2,25.9
2023/08/29 22:00:00, 0.2,26.8
2023/08/29 22:10:00, 0.2,26.9
2023/08/29 22:20:00, 0.2,27.2
2023/08/29 22:30:00, 0.2,27.3
2023/08/29 22:40:00, 0.2,26.7
2023/08/29 22:50:00, 0.2,26.7
2023/08/29 23:00:00, 0.2,26.4
2023/08/29 23:10:00, 0.2,26.7
2023/08/29 23:20:00, 0.2,26.9
2023/08/29 23:30:00, 0.2,26.7
2023/08/29 23:40:00, 0.2,26.1
2023/08/29 23:50:00, 0.2,24.8
